Location: Unspecified
(0.0000°N, 0.0000°E)
Time: 22:43:46
(UTC+00:00)

Hubble Space Telescope - Pass Details

Date: 24 April 2018
Orbit: 537 x 541 km, 28.5° (Epoch: 24 April)

Event Time Altitude Azimuth Distance (km) Brightness Sun altitude
Exits shadow 03:54:50 20° 30° (NNE) 1,278 3.1 -30.0°
Drops below altitude 10° 03:57:49 10° 76° (ENE) 1,782 4.4 -29.3°
Sets 04:00:33 0° 94° (E) 2,674 5.4 -28.6°
